Regional Weather Roundup
Issued by NWS

Home | Current Version | Previous Version | Graphics & Text | Print | Product List | Glossary On
Versions: 1 2 3 4 5 6 7 8 9 10 11 12 13 14 15 16 17 18 19 20 21 22 23 24 25 26 27 28
000
ASUS45 KBOI 291510
RWRID

IDAHO REGIONAL WEATHER ROUNDUP
NATIONAL WEATHER SERVICE BOISE ID
900 AM MDT SAT APR 29 2017

NOTE: "FAIR" INDICATES FEW OR NO CLOUDS BELOW 12000 FEET
WITH NO SIGNIFICANT WEATHER AND/OR OBSTRUCTIONS TO VISIBILITY

IDZ012-014-291600-
SOUTHWEST IDAHO


CITY           SKY/WX    TMP DP  RH WIND       PRES   REMARKS
BOISE          SUNNY     40  32  73 CALM      30.25R
CALDWELL       SUNNY     45  34  65 CALM      30.27R
MOUNTAIN HOME  SUNNY     43  32  64 NW15      30.25R
$$

IDZ016-017-291600-
SOUTHCENTRAL IDAHO


CITY           SKY/WX    TMP DP  RH WIND       PRES   REMARKS
BURLEY         SUNNY     42  28  57 W14G22    30.24R
JEROME         SUNNY     39  30  70 S10       30.26R WCI  32
TWIN FALLS     SUNNY     42  28  57 W14       30.26R
$$

IDZ019>023-291600-
SOUTHEAST IDAHO


CITY           SKY/WX    TMP DP  RH WIND       PRES   REMARKS
IDAHO FALLS    SUNNY     38  30  73 N6        30.23R WCI  33
POCATELLO      SUNNY     39  32  76 SW8       30.24R WCI  33
REXBURG        SUNNY     38  24  57 NE8       30.22R WCI  32
$$

IDZ006-010-011-018-031-032-291600-
CENTRAL IDAHO MOUNTAINS


CITY           SKY/WX    TMP DP  RH WIND       PRES   REMARKS
MCCALL         SUNNY     36  24  62 CALM      30.21S
HAILEY         MOSUNNY   37  19  48 NW6       30.24R WCI  33
STANLEY          N/A     26  19  74 CALM      30.25S
SALMON         SUNNY     36  27  69 CALM      30.28S
CHALLIS        SUNNY     35  22  58 S3        30.26R
$$

IDZ002-004-006-007-026-291600-
NORTHERN IDAHO


CITY           SKY/WX    TMP DP  RH WIND       PRES   REMARKS
LEWISTON       SUNNY     46  39  76 NE5       30.28S
LOWELL           N/A     39  34  82 CALM      30.35F
COEUR D`ALENE  SUNNY     45  38  76 S12       30.25R
MULLAN PASS    FOG       31  30  96 VRB5      30.20F VSB 1   WCI  26
$$




USA.gov is the U.S. government's official web portal to all federal, state and local government web resources and services.